Preview of NWS' New Version of Forecast
This preview is not operational and should not be used for support decisions.

Regional Weather Roundup (RWR)

Issued by National Weather Service (NWS)

                            
000
ASUS43 KBIS 220202
RWRND 

NORTH DAKOTA REGIONAL WEATHER ROUNDUP
NATIONAL WEATHER SERVICE BISMARCK ND
900 PM CDT SAT SEP 21 2019

NOTE: "FAIR" INDICATES FEW OR NO CLOUDS BELOW 12,000 FEET WITH NO
SIGNIFICANT WEATHER AND/OR OBSTRUCTIONS TO VISIBILITY.


NDZ001>003-009>011-017-220300-
NORTHWEST NORTH DAKOTA
  
CITY           SKY/WX    TMP DP  RH WIND       PRES   REMARKS
WILLISTON      CLEAR     52  45  77 SW8       29.88R                  
MINOT          CLEAR     52  51  97 SW7       29.83R                  
$$
 
NDZ018>021-031>035-040>046-220300-
SOUTHWEST NORTH DAKOTA
  
CITY           SKY/WX    TMP DP  RH WIND       PRES   REMARKS
BISMARCK       CLEAR     57  50  77 NW13G25   29.86R                  
DICKINSON      CLEAR     47  44  90 W7        29.92R                  
GARRISON         N/A     51  49  92 NW6       29.86R                  
HETTINGER ARPT CLEAR     47  45  93 NW6       29.96R                  
$$
 
NDZ004>008-012>016-024-026-027-054-220300-
NORTHEAST NORTH DAKOTA
  
CITY           SKY/WX    TMP DP  RH WIND       PRES   REMARKS
GRAND FORKS    PTCLDY    59  52  77 W10       29.71R                  
DEVILS LAKE    CLOUDY    54  51  90 W14       29.78R                  
$$
 
NDZ022-023-025-028>030-036>039-047>053-220300-
SOUTHEAST NORTH DAKOTA
  
CITY           SKY/WX    TMP DP  RH WIND       PRES   REMARKS
FARGO          CLOUDY    63  57  81 W8        29.75R                  
JAMESTOWN      CLEAR     58  52  80 NW14      29.79R                  
$$